sat.trackr.live / text

‹ back to catalog

YAOGAN-36 04A

NORAD 54746 · 2022-171A

PAYLOAD ACTIVE UNKNOWN

§ Identity

Operator
Country
PRC
Launch date
2022-12-14
Launch site
XICLF
Launch vehicle
Mass (kg)
RCS (m²)

External: N2YO · Heavens-Above · Gunter

§ Orbital elements

Epoch: 2026-09-20T21:56:28.309920Z

Period
94.61 min
Inclination
34.9911°
Eccentricity
0.0006614
Mean motion
15.21986954 rev/d
Perigee alt
495.3 km
Apogee alt
504.4 km
Semi-major
6,878.0 km
B*
1.9380e-4
RAAN
340.7392°
Arg perigee
76.1153°
Mean anomaly
284.0297°
Rev number
20,971

§ Raw data

YAOGAN-36 04A1 54746U 22171A   26263.91421655  .00004499  00000+0  19380-3 0  99902 54746  34.9911 340.7392 0006614  76.1153 284.0297 15.21986954209714

JSON: /api/v1/satellites/54746 · /tle

For live sub-satellite position, see the globe view (requires WebGL).

§ Visibility from observer

Set your observer location to see the next 7 days of passes ≥ 10°. The values pass through the URL so the page stays shareable.

No JS? Fill the form by hand. The geolocation button needs JavaScript.